TimePST,TemperatureF,Dew PointF,Humidity,Sea Level PressureIn,VisibilityMPH,Wind Direction,Wind SpeedMPH,Gust SpeedMPH,PrecipitationIn,Events,Conditions,WindDirDegrees,DateUTC
12:53 AM,18.0,14.0,84,30.51,10.0,SSE,11.5,-,N/A,,Clear,160,2013-02-16 08:53:00
1:53 AM,17.6,12.2,79,30.43,10.0,South,11.5,-,N/A,,Clear,170,2013-02-16 09:53:00
2:53 AM,16.0,12.0,84,30.47,10.0,South,11.5,-,N/A,,Clear,170,2013-02-16 10:53:00
3:53 AM,17.1,12.0,81,30.46,10.0,South,17.3,-,N/A,,Clear,170,2013-02-16 11:53:00
4:53 AM,15.1,10.9,84,30.48,10.0,South,12.7,-,N/A,,Clear,170,2013-02-16 12:53:00
5:53 AM,12.9,9.0,84,30.53,10.0,South,13.8,-,N/A,,Clear,180,2013-02-16 13:53:00
6:53 AM,14.0,9.0,80,30.53,10.0,South,15.0,-,N/A,,Clear,170,2013-02-16 14:53:00
7:53 AM,19.9,12.9,74,30.50,10.0,South,11.5,-,N/A,,Clear,180,2013-02-16 15:53:00
8:53 AM,27.0,16.0,63,30.46,10.0,South,11.5,-,N/A,,Clear,180,2013-02-16 16:53:00
9:53 AM,34.0,17.1,50,30.40,10.0,South,6.9,-,N/A,,Clear,190,2013-02-16 17:53:00
10:53 AM,42.1,16.0,35,30.36,10.0,ESE,3.5,-,N/A,,Clear,110,2013-02-16 18:53:00
11:53 AM,48.9,16.0,27,30.29,10.0,Calm,Calm,-,N/A,,Clear,0,2013-02-16 19:53:00
12:53 PM,50.0,10.9,21,30.23,10.0,Calm,Calm,-,N/A,,Clear,0,2013-02-16 20:53:00
1:53 PM,51.1,12.0,21,30.20,10.0,Calm,Calm,-,N/A,,Clear,0,2013-02-16 21:53:00
2:53 PM,51.1,19.0,28,30.17,10.0,North,6.9,-,N/A,,Clear,350,2013-02-16 22:53:00
3:53 PM,52.0,17.1,25,30.14,10.0,Calm,Calm,-,N/A,,Clear,0,2013-02-16 23:53:00
4:53 PM,43.0,17.1,35,30.17,10.0,South,8.1,-,N/A,,Clear,190,2013-02-17 00:53:00
5:53 PM,37.9,16.0,41,30.19,10.0,South,12.7,-,N/A,,Clear,180,2013-02-17 01:53:00
6:53 PM,39.0,15.1,38,30.18,10.0,South,10.4,-,N/A,,Clear,190,2013-02-17 02:53:00
7:53 PM,36.0,17.1,46,30.15,10.0,WSW,9.2,-,N/A,,Clear,240,2013-02-17 03:53:00
8:53 PM,33.1,18.0,54,30.12,10.0,South,9.2,-,N/A,,Clear,170,2013-02-17 04:53:00
9:53 PM,34.0,18.0,52,30.07,10.0,SSW,15.0,-,0.00,,Clear,200,2013-02-17 05:53:00
10:53 PM,33.1,18.0,54,30.01,10.0,SSW,13.8,-,N/A,,Clear,200,2013-02-17 06:53:00
11:53 PM,30.9,18.0,59,29.97,10.0,South,12.7,-,N/A,,Clear,190,2013-02-17 07:53:00